Weather History for KHRT - March, 2013

Change the Weather History Date:

Tuesday, March 26, 2013

  Actual Average Record
Temperature  
Mean Temperature 46 °F -  
Max Temperature 56 °F - - ()
Min Temperature 35 °F - - ()
Degree Days  
Heating Degree Days 20    
Moisture  
Dew Point 26 °F    
Average Humidity 45    
Maximum Humidity 71    
Minimum Humidity 31    
Precipitation  
Precipitation 0.00 in - - ()
Sea Level Pressure  
Sea Level Pressure 30.27 in    
Wind  
Wind Speed 10 mph (NNW)    
Max Wind Speed 20 mph    
Max Gust Speed 28 mph    
Visibility 10 miles    
Events      
T = Trace of Precipitation, MM = Missing Value Source: NWS Daily Summary

Daily Weather History Graph

Daily Weather History Graph

Search for Another Location

Airport or City:

Trip Planner

Search our weather history database for the weather conditions in past years. The results will help you decide how hot, cold, wet, or windy it might be!

Date:

Astronomy

Mar. 26, 2013 Rise Set
Actual Time 6:42 AM CDT 7:02 PM CDT
Civil Twilight 6:18 AM CDT 7:26 PM CDT
Nautical Twilight 5:50 AM CDT 7:54 PM CDT
Astronomical Twilight 5:22 AM CDT 8:22 PM CDT
Moon 6:37 PM CDT (3/26) 5:57 AM CDT (3/26)
Length of Visible Light 13h 07m
Length of Day
12h 19m
Waxing Gibbous, 99% of the Moon is Illuminated
Mar 26
Waxing Gibbous
Mar 27
Full
Apr 2
Last Quarter
Apr 10
New
Apr 18
First Quarter

Hourly Weather History & Observations

Time (CDT) Temp. Windchill Dew Point Humidity Pressure Visibility Wind Dir Wind Speed Gust Speed Precip Events Conditions
12:58 AM 40.8 °F 36.9 °F 25.5 °F 55% 30.22 in 10.0 mi North 5.8 mph - N/A   Clear
1:58 AM 38.8 °F 33.2 °F 26.1 °F 60% 30.22 in 10.0 mi North 8.1 mph - N/A   Clear
2:58 AM 39.2 °F 35.0 °F 25.0 °F 57% 30.22 in 10.0 mi NW 5.8 mph - N/A   Clear
3:58 AM 35.2 °F 32.4 °F 26.8 °F 71% 30.23 in 10.0 mi NNW 3.5 mph - N/A   Clear
4:58 AM 37.2 °F 31.9 °F 25.0 °F 61% 30.24 in 10.0 mi NNW 6.9 mph - N/A   Clear
5:58 AM 36.5 °F 29.7 °F 25.0 °F 63% 30.26 in 10.0 mi NNW 9.2 mph - N/A   Clear
6:58 AM 36.1 °F 29.9 °F 25.0 °F 64% 30.29 in 10.0 mi NNW 8.1 mph - N/A   Clear
7:58 AM 39.4 °F 31.4 °F 25.2 °F 57% 30.30 in 10.0 mi NNW 13.8 mph - N/A   Clear
8:58 AM 42.6 °F 35.2 °F 23.9 °F 48% 30.31 in 10.0 mi North 15.0 mph - N/A   Clear
9:58 AM 45.1 °F 37.3 °F 23.0 °F 42% 30.31 in 10.0 mi North 19.6 mph 24.2 mph N/A   Clear
10:58 AM 47.1 °F - 23.5 °F 40% 30.31 in 10.0 mi NNW 16.1 mph 26.5 mph N/A   Clear
11:24 AM 48.2 °F - 24.8 °F 40% 30.29 in 10.0 mi NNW 15.0 mph 20.7 mph N/A   Clear
11:58 AM 49.8 °F - 24.6 °F 37% 30.30 in 10.0 mi NNW 10.4 mph 24.2 mph N/A   Clear
12:17 PM 51.8 °F - 24.8 °F 35% 30.28 in 10.0 mi NW 16.1 mph 21.9 mph N/A   Clear
12:58 PM 52.2 °F - 25.5 °F 36% 30.28 in 10.0 mi NNW 8.1 mph 25.3 mph N/A   Clear
1:32 PM 51.8 °F - 24.8 °F 35% 30.26 in 10.0 mi North 16.1 mph 24.2 mph N/A   Clear
1:50 PM 53.6 °F - 24.8 °F 33% 30.25 in 10.0 mi North 12.7 mph 19.6 mph N/A   Clear
1:58 PM 53.4 °F - 25.3 °F 34% 30.26 in 10.0 mi NW 15.0 mph 23.0 mph N/A   Clear
2:47 PM 55.4 °F - 24.8 °F 31% 30.23 in 10.0 mi North 15.0 mph 26.5 mph N/A   Clear
2:58 PM 55.6 °F - 25.2 °F 31% 30.23 in 10.0 mi North 10.4 mph 27.6 mph N/A   Clear
3:18 PM 55.4 °F - 24.8 °F 31% 30.22 in 10.0 mi North 15.0 mph 19.6 mph N/A   Clear
3:58 PM 56.1 °F - 26.2 °F 32% 30.22 in 10.0 mi NNW 15.0 mph 23.0 mph N/A   Clear
3:59 PM 55.4 °F - 24.8 °F 31% 30.21 in 10.0 mi NW 13.8 mph 23.0 mph N/A   Clear
4:46 PM 55.4 °F - 24.8 °F 31% 30.21 in 10.0 mi North 12.7 mph 20.7 mph N/A   Clear
4:58 PM 55.9 °F - 25.7 °F 31% 30.22 in 10.0 mi North 10.4 mph 23.0 mph N/A   Clear
5:58 PM 54.3 °F - 25.3 °F 33% 30.23 in 10.0 mi NNW 13.8 mph 20.7 mph N/A   Clear
6:58 PM 51.3 °F - 26.6 °F 38% 30.25 in 10.0 mi NNW 8.1 mph - N/A   Clear
7:58 PM 47.5 °F - 28.2 °F 47% 30.28 in 10.0 mi North 8.1 mph - N/A   Clear
8:58 PM 43.5 °F 37.9 °F 29.7 °F 58% 30.31 in 10.0 mi North 10.4 mph - N/A   Clear
9:58 PM 43.9 °F 39.3 °F 28.4 °F 55% 30.34 in 10.0 mi North 8.1 mph - N/A   Clear
10:58 PM 40.1 °F 35.3 °F 29.3 °F 65% 30.36 in 10.0 mi North 6.9 mph - N/A   Clear
11:58 PM 40.8 °F 35.6 °F 28.2 °F 61% 30.36 in 10.0 mi NNE 8.1 mph - N/A   Clear